Flag for Germany Weather past 2 weeks in Herzogenrath, North Rhine-Westphalia, Germany

Now
53 °F

Drizzle. Low clouds.


Feels Like: 51 °F
Forecast: 49 / 59 °F
Wind: 5 mph from Southwest

Location: Maastricht Airport Zuid Limburg

Current Time: Sep 5, 2015 at 4:25:23 AM

Latest Report: Sep 5, 2015 at 3:00 AM


Visibility: 2 mi

Pressure: 29.98 "Hg

Humidity: 94%

Dew point: 51 °F

Location of HerzogenrathLocation

Historic Weather in Herzogenrath — Graph

°F

Herzogenrath temperature yesterday

Maximum temperature yesterday: 62 °F (at 3:00 PM)
Minimum temperature yesterday: 50 °F (at 4:00 AM)
Average temperature yesterday: 55 °F

Past Weeks' High & Low Weather Summary

 TemperatureHumidityPressure
High88 °F (Aug 31, 4:00 PM)99% (Sep 2, 8:00 AM)30.24 "Hg (Sep 2, 8:00 AM)
Low50 °F (Sep 4, 4:00 AM)35% (Aug 23, 2:00 PM)29.50 "Hg (Aug 24, 2:00 PM)
Average65 °F74%29.95 "Hg
* Reported Aug 20 7:00 PM — Sep 4 7:00 PM, Herzogenrath, Weather by CustomWeather, © 2015

Note: Actual official high and low records may vary slightly from our data, if they occured in-between our weather recording intervals... More about our weather records

Advertising

Herzogenrath weather history for previous 24 hours

 ConditionsComfort  
Time TempWeatherWind HumidityBarometerVisibility
7:00 PM
Fri, Sep 4
57 °FOvercast.3 mph71%29.97 "Hg22 mi
6:00 PM59 °FOvercast.5 mph65%29.97 "Hg25 mi
5:00 PM58 °FOvercast.5 mph67%29.97 "Hg19 mi
4:00 PM61 °FOvercast.5 mph62%29.97 "Hg17 mi
3:00 PM62 °FOvercast.6 mph61%29.98 "Hg19 mi
2:00 PM60 °FOvercast.8 mph63%29.98 "Hg16 mi
1:00 PM59 °FOvercast.7 mph66%29.99 "Hg16 mi
12:00 PM58 °FOvercast.6 mph67%30.00 "Hg17 mi
11:00 AM58 °FOvercast.7 mph73%29.99 "Hg16 mi
10:00 AM55 °FOvercast.5 mph80%29.98 "Hg12 mi
9:00 AM53 °FOvercast.6 mph84%29.98 "Hg16 mi
8:00 AM52 °FOvercast.5 mph87%29.97 "Hg10 mi
7:00 AM51 °FOvercast.5 mph88%29.97 "Hg10 mi
6:00 AM51 °FOvercast.3 mph91%29.97 "Hg7 mi
5:00 AM50 °FFog.3 mph94%29.98 "Hg6 mi
4:00 AM50 °FFog.3 mph94%29.98 "Hg4 mi
Weather by CustomWeather, © 2015

See weather overviewHow to use our weather pages